Weather History for CWZG - June, 2013

Change the Weather History Date:

Thursday, June 13, 2013

  Actual Average Record
Temperature  
Mean Temperature 50 °F -  
Max Temperature 63 °F - - ()
Min Temperature 36 °F - - ()
Degree Days  
Heating Degree Days 16    
Moisture  
Dew Point 32 °F    
Average Humidity 57    
Maximum Humidity 97    
Minimum Humidity 21    
Precipitation  
Precipitation 0.00 in - - ()
Sea Level Pressure  
Sea Level Pressure 29.98 in    
Wind  
Wind Speed 5 mph ()    
Max Wind Speed 9 mph    
Max Gust Speed -    
T = Trace of Precipitation, MM = Missing Value Source: Averaged Metar Reports

Daily Weather History Graph

Daily Weather History Graph

Search for Another Location

Airport or City:

Trip Planner

Search our weather history database for the weather conditions in past years. The results will help you decide how hot, cold, wet, or windy it might be!

Date:

Astronomy

Jun. 13, 2013 Rise Set
Actual Time 5:26 AM MDT 9:58 PM MDT
Civil Twilight 4:39 AM MDT 10:45 PM MDT
Nautical Twilight 3:28 AM MDT 11:56 PM MDT
Astronomical Twilight 2:14 AM MDT 1:10 AM MDT
Moon 10:35 AM MDT (6/13) 12:10 AM MDT (6/13)
Length of Visible Light 18h 05m
Length of Day
16h 32m
Waxing Crescent, 22% of the Moon is Illuminated
Jun 13
Waxing Crescent
Jun 16
First Quarter
Jun 23
Full
Jun 29
Last Quarter
Jul 8
New

Hourly Weather History & Observations

Time (MDT) Temp. Windchill Dew Point Humidity Pressure Visibility Wind Dir Wind Speed Gust Speed Precip Events Conditions
12:00 AM 47.3 °F - 36.7 °F 67% 30.00 in - WSW 8.1 mph - N/A   Unknown
1:00 AM 46.0 °F 43.1 °F 37.8 °F 73% 30.02 in - SW 5.8 mph - N/A   Unknown
2:00 AM 45.7 °F 44.4 °F 37.4 °F 73% 30.00 in - SW 3.5 mph - N/A   Unknown
3:00 AM 44.2 °F 41.0 °F 37.6 °F 77% 30.01 in - WSW 5.8 mph - N/A   Unknown
4:00 AM 38.5 °F - 36.1 °F 91% 30.06 in - North 2.3 mph - N/A   Unknown
5:00 AM 36.3 °F 33.7 °F 35.4 °F 97% 30.08 in - NNE 3.5 mph - N/A   Unknown
6:00 AM 36.0 °F - 34.9 °F 96% 30.05 in - East 1.2 mph - N/A   Unknown
7:00 AM 40.8 °F 36.9 °F 37.8 °F 89% 30.04 in - SW 5.8 mph - N/A   Unknown
8:00 AM 43.7 °F 41.1 °F 38.7 °F 82% 30.01 in - SW 4.6 mph - N/A   Unknown
9:00 AM 47.3 °F - 37.0 °F 68% 30.01 in - SW 6.9 mph - N/A   Unknown
10:00 AM 45.9 °F 41.7 °F 37.4 °F 72% 30.03 in - SW 8.1 mph - N/A   Unknown
11:00 AM 52.5 °F - 35.2 °F 52% 30.00 in - NE 3.5 mph - N/A   Unknown
12:00 PM 55.2 °F - 35.4 °F 47% 29.97 in - South 4.6 mph - N/A   Unknown
1:00 PM 59.0 °F - 29.8 °F 33% 29.94 in - SW 8.1 mph - N/A   Unknown
2:00 PM 60.8 °F - 25.7 °F 26% 29.92 in - SW 8.1 mph - N/A   Unknown
3:00 PM 60.4 °F - 28.8 °F 30% 29.94 in - SW 6.9 mph - N/A   Unknown
4:00 PM 59.2 °F - 23.9 °F 26% 29.94 in - WSW 6.9 mph - N/A   Unknown
5:00 PM 63.0 °F - 22.5 °F 21% 29.91 in - SW 9.2 mph - N/A   Unknown
6:00 PM 61.7 °F - 22.1 °F 22% 29.89 in - WSW 5.8 mph - N/A   Unknown
7:00 PM 59.7 °F - 25.0 °F 26% 29.89 in - NW 6.9 mph - N/A   Unknown
8:00 PM 52.5 °F - 29.7 °F 42% 29.93 in - NW 8.1 mph - N/A   Unknown
9:00 PM 53.2 °F - 27.3 °F 37% 29.94 in - WSW 6.9 mph - N/A   Unknown
10:00 PM 46.4 °F - 32.0 °F 57% 29.95 in - NNW 1.2 mph - N/A   Unknown
11:00 PM 44.2 °F - 33.8 °F 67% 29.96 in - ESE 1.2 mph - N/A   Unknown